�������l�o���
Date,Time,MP-1(��Sv/h),MP-2(��Sv/h),MP-3(��Sv/h),MP-4(��Sv/h),MP-5(��Sv/h),MP-6(��Sv/h),MP-7(��Sv/h),MP-8(��Sv/h),����,����(m/s),���J
2017/04/29,00:00,1.025,1.652,1.102,1.978,1.371,0.544,0.996,0.925,��쓌,4.1,��
2017/04/29,00:10,1.025,1.654,1.101,1.977,1.369,0.546,1.001,0.923,��,3.9,��
2017/04/29,00:20,1.027,1.653,1.104,1.981,1.370,0.546,1.001,0.922,��,4.3,��
2017/04/29,00:30,1.025,1.652,1.101,1.979,1.371,0.546,0.999,0.923,��,3.7,��
2017/04/29,00:40,1.023,1.654,1.104,1.981,1.372,0.545,0.998,0.923,��,4.4,��
2017/04/29,00:50,1.023,1.653,1.105,1.978,1.371,0.545,1.000,0.922,��,4.6,��
2017/04/29,01:00,1.027,1.654,1.104,1.979,1.370,0.547,1.000,0.923,��,4.8,��
2017/04/29,01:10,1.023,1.652,1.103,1.976,1.369,0.546,0.998,0.925,��,4.9,��
2017/04/29,01:20,1.025,1.652,1.102,1.978,1.370,0.544,0.997,0.925,��,4.9,��
2017/04/29,01:30,1.023,1.653,1.103,1.977,1.370,0.545,1.000,0.924,��,5.1,��
2017/04/29,01:40,1.022,1.655,1.102,1.977,1.369,0.545,1.000,0.923,��,4.3,��
2017/04/29,01:50,1.026,1.655,1.101,1.975,1.369,0.545,0.999,0.924,��,3.6,��
2017/04/29,02:00,1.025,1.653,1.103,1.975,1.370,0.546,0.999,0.926,��쐼,3.4,��
2017/04/29,02:10,1.023,1.653,1.102,1.980,1.370,0.546,0.999,0.923,��쐼,3.4,��
2017/04/29,02:20,1.025,1.653,1.101,1.978,1.370,0.545,0.999,0.923,��쐼,3.3,��
2017/04/29,02:30,1.024,1.653,1.100,1.975,1.369,0.546,0.998,0.923,��,2.9,��
2017/04/29,02:40,1.022,1.654,1.102,1.979,1.369,0.544,0.997,0.923,��,3.6,��
2017/04/29,02:50,1.025,1.652,1.102,1.976,1.368,0.543,0.998,0.924,��,3.2,��
2017/04/29,03:00,1.026,1.654,1.102,1.977,1.368,0.545,1.000,0.926,��,3.0,��
2017/04/29,03:10,1.022,1.652,1.103,1.978,1.368,0.546,1.000,0.924,��쐼,2.3,��
2017/04/29,03:20,1.023,1.651,1.102,1.979,1.368,0.545,0.999,0.921,��,2.6,��
2017/04/29,03:30,1.026,1.651,1.104,1.975,1.369,0.544,0.997,0.925,��,3.3,��
2017/04/29,03:40,1.023,1.652,1.102,1.975,1.368,0.543,1.000,0.924,��,4.2,��
2017/04/29,03:50,1.021,1.649,1.104,1.977,1.368,0.545,0.998,0.922,��,3.3,��
2017/04/29,04:00,1.024,1.650,1.101,1.973,1.367,0.545,0.997,0.924,��쐼,3.1,��
2017/04/29,04:10,1.024,1.650,1.101,1.977,1.368,0.545,0.999,0.923,��,3.2,��
2017/04/29,04:20,1.024,1.651,1.101,1.977,1.369,0.544,0.997,0.924,��,3.0,��
2017/04/29,04:30,1.022,1.652,1.101,1.975,1.367,0.545,0.998,0.923,��,3.4,��
2017/04/29,04:40,1.024,1.654,1.101,1.976,1.366,0.544,0.998,0.926,��쓌,3.1,��
2017/04/29,04:50,1.023,1.653,1.100,1.978,1.367,0.546,1.000,0.922,��,3.9,��
2017/04/29,05:00,1.022,1.649,1.102,1.976,1.369,0.545,0.999,0.925,��,4.0,��
2017/04/29,05:10,1.023,1.652,1.099,1.974,1.369,0.544,1.000,0.925,��,5.0,��
2017/04/29,05:20,1.023,1.650,1.100,1.977,1.368,0.544,0.998,0.924,��,4.9,��
2017/04/29,05:30,1.024,1.654,1.101,1.977,1.367,0.544,0.999,0.924,��,5.8,��
2017/04/29,05:40,1.021,1.653,1.101,1.975,1.368,0.546,0.999,0.925,��,5.7,��
2017/04/29,05:50,1.023,1.652,1.100,1.978,1.365,0.543,0.999,0.924,��,4.4,��
2017/04/29,06:00,1.022,1.650,1.103,1.974,1.369,0.545,0.999,0.924,��,4.4,��
2017/04/29,06:10,1.024,1.653,1.102,1.982,1.369,0.546,0.999,0.926,��,4.8,��
2017/04/29,06:20,1.025,1.653,1.103,1.977,1.369,0.544,1.001,0.924,��,5.4,��
2017/04/29,06:30,1.024,1.656,1.102,1.979,1.369,0.546,1.001,0.924,��,5.2,��
2017/04/29,06:40,1.027,1.654,1.105,1.979,1.367,0.545,1.002,0.925,��,6.2,��
2017/04/29,06:50,1.025,1.657,1.108,1.982,1.369,0.546,1.001,0.924,��,6.9,��
2017/04/29,07:00,1.026,1.659,1.107,1.982,1.369,0.549,1.001,0.925,��,5.9,��
2017/04/29,07:10,1.027,1.659,1.106,1.979,1.373,0.546,1.003,0.927,��,4.7,��
2017/04/29,07:20,1.029,1.659,1.108,1.981,1.372,0.545,1.002,0.925,��,5.2,��
2017/04/29,07:30,1.030,1.656,1.109,1.982,1.373,0.544,1.003,0.925,��,5.1,��
2017/04/29,07:40,1.031,1.657,1.109,1.985,1.372,0.545,1.004,0.924,��,4.9,��
2017/04/29,07:50,1.028,1.658,1.109,1.983,1.373,0.546,1.003,0.926,��,6.5,��
2017/04/29,08:00,1.032,1.658,1.109,1.984,1.371,0.545,1.005,0.928,��,6.4,��
2017/04/29,08:10,1.031,1.661,1.110,1.983,1.374,0.546,1.005,0.927,��,6.8,��
2017/04/29,08:20,1.031,1.658,1.109,1.983,1.371,0.545,1.002,0.926,��쓌,7.4,��
2017/04/29,08:30,1.030,1.659,1.108,1.987,1.372,0.546,1.003,0.924,��쓌,6.7,��
2017/04/29,08:40,1.030,1.657,1.107,1.985,1.370,0.546,1.004,0.923,��쓌,6.7,��
2017/04/29,08:50,1.031,1.658,1.106,1.982,1.373,0.546,1.001,0.923,��쓌,7.5,��
2017/04/29,09:00,1.029,1.660,1.111,1.986,1.375,0.549,1.001,0.923,��쓌,8.3,��
2017/04/29,09:10,1.029,1.661,1.111,1.988,1.373,0.548,1.001,0.923,��,8.4,��
2017/04/29,09:20,1.031,1.659,1.109,1.990,1.375,0.549,1.003,0.924,��,8.4,��
2017/04/29,09:30,1.032,1.661,1.109,1.985,1.374,0.547,1.002,0.923,��쓌,9.7,��
2017/04/29,09:40,1.034,1.664,1.108,1.988,1.375,0.550,1.001,0.925,��,10.8,��
2017/04/29,09:50,1.034,1.665,1.112,1.989,1.377,0.549,1.001,0.925,��쓌,10.7,��
2017/04/29,10:00,1.033,1.661,1.110,1.990,1.376,0.549,1.003,0.925,��쓌,9.2,��
2017/04/29,10:10,1.033,1.665,1.109,1.990,1.377,0.550,1.004,0.924,��,9.2,��
2017/04/29,10:20,1.032,1.665,1.109,1.989,1.377,0.550,1.003,0.927,��,9.3,��
2017/04/29,10:30,1.033,1.666,1.111,1.989,1.378,0.550,1.002,0.923,��쓌,11.1,��
2017/04/29,10:40,1.031,1.665,1.110,1.990,1.379,0.551,1.006,0.925,��쓌,11.1,��
2017/04/29,10:50,1.033,1.664,1.110,1.991,1.381,0.550,1.002,0.925,��쓌,12.5,��
2017/04/29,11:00,1.031,1.664,1.112,1.992,1.376,0.550,1.002,0.925,��쓌,12.8,��
2017/04/29,11:10,1.030,1.665,1.107,1.989,1.382,0.550,1.003,0.926,��쓌,12.2,��
2017/04/29,11:20,1.034,1.666,1.109,1.985,1.383,0.550,1.004,0.923,��쓌,12.7,��
2017/04/29,11:30,1.032,1.666,1.110,1.987,1.380,0.551,1.004,0.924,��쓌,13.1,��
2017/04/29,11:40,1.032,1.668,1.109,1.986,1.381,0.550,1.004,0.925,��쓌,13.8,��
2017/04/29,11:50,1.031,1.667,1.110,1.985,1.380,0.550,1.004,0.924,��쓌,13.5,��
2017/04/29,12:00,1.034,1.668,1.111,1.985,1.381,0.551,1.006,0.927,��쓌,13.0,��
2017/04/29,12:10,1.034,1.668,1.110,1.988,1.384,0.550,1.006,0.924,��,10.6,��
2017/04/29,12:20,1.034,1.670,1.111,1.989,1.381,0.551,1.006,0.926,��,10.0,��
2017/04/29,12:30,1.035,1.670,1.113,1.991,1.384,0.552,1.005,0.926,��,9.7,��
2017/04/29,12:40,1.036,1.670,1.112,1.990,1.384,0.550,1.005,0.925,��,11.8,��
2017/04/29,12:50,1.033,1.668,1.111,1.989,1.383,0.550,1.005,0.926,��쓌,12.2,��
2017/04/29,13:00,1.034,1.670,1.114,1.988,1.384,0.552,1.005,0.927,��,12.2,��
2017/04/29,13:10,1.036,1.668,1.112,1.992,1.384,0.551,1.006,0.926,��쓌,11.1,��
2017/04/29,13:20,1.035,1.669,1.116,1.994,1.385,0.550,1.006,0.927,��쓌,10.0,��
2017/04/29,13:30,1.035,1.671,1.115,1.994,1.383,0.550,1.006,0.926,��,13.0,��
2017/04/29,13:40,1.033,1.671,1.113,1.995,1.382,0.551,1.005,0.927,��,11.3,�L
2017/04/29,13:50,1.034,1.670,1.110,1.995,1.382,0.549,1.005,0.927,��,11.7,�L
2017/04/29,14:00,1.034,1.665,1.111,1.995,1.383,0.550,1.006,0.925,��쓌,11.7,�L
2017/04/29,14:10,1.033,1.669,1.115,1.994,1.382,0.550,1.004,0.927,��,10.7,�L
2017/04/29,14:20,1.035,1.668,1.113,1.992,1.380,0.548,1.005,0.925,��,8.9,�L
2017/04/29,14:30,1.037,1.664,1.112,1.992,1.381,0.549,1.004,0.925,��쐼,7.1,�L
2017/04/29,14:40,1.027,1.642,1.107,1.989,1.367,0.550,1.003,0.926,��쐼,5.7,�L
2017/04/29,14:50,1.020,1.618,1.098,1.980,1.346,0.549,1.001,0.923,��쐼,3.4,�L
2017/04/29,15:00,1.023,1.622,1.101,1.977,1.348,0.552,0.999,0.921,��쐼,5.8,�L
2017/04/29,15:10,1.024,1.624,1.099,1.979,1.345,0.552,0.995,0.922,��쐼,8.1,�L
2017/04/29,15:20,1.023,1.622,1.103,1.973,1.341,0.555,0.997,0.921,��쓌,7.2,�L
2017/04/29,15:30,1.020,1.623,1.101,1.973,1.345,0.555,0.998,0.921,�쓌,7.4,�L
2017/04/29,15:40,1.020,1.620,1.100,1.971,1.343,0.554,0.997,0.920,�쓌,6.9,��
2017/04/29,15:50,1.016,1.621,1.097,1.968,1.342,0.553,0.996,0.922,��쓌,8.3,��
2017/04/29,16:00,1.017,1.621,1.095,1.972,1.343,0.553,0.997,0.921,��쓌,7.3,��
2017/04/29,16:10,1.015,1.619,1.095,1.966,1.343,0.551,0.996,0.921,��쓌,7.5,��
2017/04/29,16:20,1.014,1.619,1.094,1.968,1.344,0.549,0.998,0.923,��쓌,8.4,��
2017/04/29,16:30,1.012,1.618,1.092,1.965,1.343,0.549,0.995,0.924,��,6.4,��
2017/04/29,16:40,1.013,1.617,1.091,1.965,1.342,0.547,0.996,0.923,��,6.5,��
2017/04/29,16:50,1.011,1.618,1.090,1.963,1.343,0.548,0.995,0.922,��쐼,5.6,��
2017/04/29,17:00,1.010,1.619,1.089,1.965,1.341,0.547,0.996,0.923,�쐼,5.4,��
2017/04/29,17:10,1.010,1.617,1.089,1.965,1.341,0.547,0.996,0.923,��쐼,3.8,��
2017/04/29,17:20,1.012,1.617,1.087,1.966,1.341,0.546,0.997,0.923,�쐼,1.7,�L
2017/04/29,17:30,1.009,1.616,1.091,1.966,1.341,0.548,0.997,0.921,�k��,2.6,�L
2017/04/29,17:40,1.007,1.615,1.087,1.962,1.338,0.547,0.996,0.921,�k�k��,5.6,�L
2017/04/29,17:50,1.010,1.615,1.088,1.963,1.338,0.546,0.997,0.922,�k,5.1,�L
2017/04/29,18:00,1.011,1.614,1.088,1.962,1.342,0.546,0.998,0.922,�k�k��,5.1,�L
2017/04/29,18:10,1.009,1.613,1.087,1.962,1.339,0.545,0.994,0.921,�k��,2.6,�L
2017/04/29,18:20,1.009,1.613,1.087,1.964,1.337,0.546,0.995,0.921,���k��,3.7,��
2017/04/29,18:30,1.007,1.614,1.086,1.962,1.341,0.545,0.995,0.922,���k��,3.7,��
2017/04/29,18:40,1.008,1.614,1.085,1.963,1.338,0.546,0.996,0.922,���k��,3.4,��
2017/04/29,18:50,1.005,1.614,1.086,1.961,1.341,0.548,0.996,0.921,�k��,2.8,�L
2017/04/29,19:00,1.004,1.612,1.086,1.961,1.338,0.543,0.998,0.921,��,2.6,�L
2017/04/29,19:10,1.007,1.610,1.084,1.958,1.336,0.545,0.998,0.921,���쐼,4.0,�L
2017/04/29,19:20,1.005,1.611,1.083,1.959,1.335,0.546,0.997,0.921,���쐼,6.4,��
2017/04/29,19:30,1.007,1.608,1.086,1.961,1.340,0.544,0.996,0.921,��,7.6,�L
2017/04/29,19:40,1.004,1.607,1.083,1.960,1.336,0.545,0.996,0.922,���k��,8.5,�L
2017/04/29,19:50,1.004,1.609,1.084,1.959,1.332,0.546,0.992,0.921,���k��,5.8,�L
2017/04/29,20:00,1.005,1.610,1.084,1.958,1.333,0.545,0.992,0.920,��,5.3,��
2017/04/29,20:10,1.007,1.609,1.085,1.959,1.334,0.545,0.991,0.920,��,4.8,��
2017/04/29,20:20,1.003,1.606,1.085,1.961,1.335,0.545,0.993,0.920,��,4.0,��
2017/04/29,20:30,1.001,1.610,1.084,1.960,1.333,0.543,0.992,0.920,��,6.2,��
2017/04/29,20:40,1.003,1.609,1.084,1.962,1.332,0.545,0.994,0.920,��,4.7,��
2017/04/29,20:50,1.003,1.605,1.083,1.963,1.331,0.544,0.992,0.919,��,4.1,��
2017/04/29,21:00,1.003,1.609,1.081,1.956,1.331,0.544,0.993,0.918,��,3.8,��
2017/04/29,21:10,1.003,1.608,1.082,1.958,1.334,0.542,0.993,0.919,���k��,4.9,��
2017/04/29,21:20,1.001,1.606,1.081,1.955,1.332,0.543,0.993,0.919,�k��,5.2,��
2017/04/29,21:30,1.002,1.603,1.082,1.957,1.331,0.543,0.993,0.918,���k��,5.2,��
2017/04/29,21:40,1.002,1.606,1.081,1.956,1.333,0.543,0.994,0.918,���k��,4.5,��
2017/04/29,21:50,1.000,1.605,1.080,1.957,1.331,0.542,0.995,0.918,��,3.5,��
2017/04/29,22:00,1.000,1.605,1.081,1.956,1.330,0.543,0.993,0.918,��,2.6,��
2017/04/29,22:10,1.001,1.606,1.079,1.958,1.330,0.543,0.992,0.918,��,3.2,��
2017/04/29,22:20,1.000,1.602,1.080,1.958,1.333,0.541,0.994,0.918,��,6.2,��
2017/04/29,22:30,1.002,1.604,1.084,1.957,1.331,0.541,0.994,0.919,��,7.3,��
2017/04/29,22:40,0.999,1.606,1.080,1.957,1.333,0.542,0.994,0.920,��,8.0,��
2017/04/29,22:50,0.998,1.605,1.080,1.960,1.330,0.543,0.994,0.919,��,7.4,��
2017/04/29,23:00,1.002,1.606,1.080,1.958,1.329,0.540,0.995,0.918,���k��,7.9,��
2017/04/29,23:10,1.000,1.606,1.083,1.959,1.329,0.543,0.994,0.919,���k��,8.5,��
2017/04/29,23:20,1.001,1.606,1.081,1.957,1.332,0.542,0.995,0.918,���k��,8.0,��
2017/04/29,23:30,1.001,1.605,1.082,1.959,1.330,0.541,0.995,0.919,���k��,8.5,��
2017/04/29,23:40,1.002,1.607,1.081,1.961,1.332,0.543,0.993,0.919,���k��,8.2,��
2017/04/29,23:50,1.003,1.605,1.081,1.960,1.333,0.542,0.995,0.919,��,7.9,��
